JBU3026 KMSY-KMCO

Flight info

Callsign JBU3026
Flight time 1h 9m
Altitude 33000
Route REDFN Y280 CHRGE PRICY4
Aircraft A20N/M-SDE2E3FGHIRWXY/LB1

Departure

Time 2026-05-05 05:43
Airport Louis Armstrong New Orleans International Airport (KMSY)

Arrival

Time 2026-05-05 06:53
Airport Orlando International Airport (KMCO)
Time Latitude Longitude Altitude Speed Heading
2026-05-05 05:24 29.98689 -90.25549 17 ft 0 kts 319°
2026-05-05 05:33 29.98685 -90.25545 17 ft 2 kts 318°
2026-05-05 05:33 29.98672 -90.25532 16 ft 2 kts 321°
2026-05-05 05:34 29.98659 -90.25521 18 ft 2 kts 324°
2026-05-05 05:34 29.98645 -90.25511 17 ft 2 kts 336°
2026-05-05 05:34 29.98629 -90.25508 18 ft 2 kts 25°
2026-05-05 05:34 29.98615 -90.25519 19 ft 2 kts 37°
2026-05-05 05:35 29.98605 -90.25528 15 ft 1 kts 37°
2026-05-05 05:35 29.98604 -90.25528 15 ft 0 kts 37°
2026-05-05 05:36 29.98609 -90.25524 15 ft 3 kts 37°
2026-05-05 05:37 29.98647 -90.25491 18 ft 11 kts 37°
2026-05-05 05:37 29.98736 -90.25415 17 ft 18 kts 36°
2026-05-05 05:37 29.98848 -90.25366 14 ft 18 kts 328°
2026-05-05 05:37 29.98891 -90.25490 15 ft 16 kts 285°
2026-05-05 05:38 29.98920 -90.25607 19 ft 14 kts 285°
2026-05-05 05:38 29.98945 -90.25709 18 ft 13 kts 285°
2026-05-05 05:38 29.98968 -90.25808 17 ft 13 kts 285°
2026-05-05 05:38 29.98995 -90.25920 15 ft 17 kts 285°
2026-05-05 05:39 29.99031 -90.26071 15 ft 22 kts 285°
2026-05-05 05:39 29.99077 -90.26261 14 ft 27 kts 287°
2026-05-05 05:39 29.99129 -90.26464 15 ft 26 kts 287°
2026-05-05 05:39 29.99176 -90.26668 16 ft 26 kts 284°
2026-05-05 05:40 29.99222 -90.26866 18 ft 25 kts 286°
2026-05-05 05:40 29.99269 -90.27058 17 ft 25 kts 285°
2026-05-05 05:40 29.99317 -90.27251 15 ft 25 kts 287°
2026-05-05 05:40 29.99362 -90.27437 11 ft 27 kts 283°
2026-05-05 05:41 29.99410 -90.27641 12 ft 26 kts 285°
2026-05-05 05:41 29.99457 -90.27838 12 ft 25 kts 286°
2026-05-05 05:41 29.99504 -90.28028 15 ft 24 kts 285°
2026-05-05 05:41 29.99578 -90.28180 16 ft 22 kts 348°
2026-05-05 05:42 29.99649 -90.28106 16 ft 11 kts 112°
2026-05-05 05:42 29.99616 -90.27970 17 ft 35 kts 105°
2026-05-05 05:42 29.99488 -90.27443 13 ft 100 kts 105°
2026-05-05 05:42 29.99249 -90.26449 17 ft 155 kts 106°
2026-05-05 05:43 29.98940 -90.25150 332 ft 166 kts 106°
2026-05-05 05:43 29.98636 -90.23875 1013 ft 163 kts 109°
2026-05-05 05:43 29.98265 -90.22579 1474 ft 184 kts 117°
2026-05-05 05:43 29.97537 -90.21285 1871 ft 205 kts 135°
2026-05-05 05:44 29.96428 -90.20043 2148 ft 236 kts 139°
2026-05-05 05:44 29.95257 -90.18626 2814 ft 249 kts 134°
2026-05-05 05:44 29.94128 -90.17068 3572 ft 257 kts 131°
2026-05-05 05:44 29.93010 -90.15449 4295 ft 266 kts 130°
2026-05-05 05:45 29.91848 -90.13743 5000 ft 275 kts 129°
2026-05-05 05:45 29.90647 -90.11991 5712 ft 282 kts 130°
2026-05-05 05:45 29.89412 -90.10209 6423 ft 288 kts 130°
2026-05-05 05:45 29.88137 -90.08391 7103 ft 294 kts 130°
2026-05-05 05:46 29.86834 -90.06546 7837 ft 299 kts 130°
2026-05-05 05:46 29.85504 -90.04673 8576 ft 304 kts 130°
2026-05-05 05:46 29.84151 -90.02772 9334 ft 310 kts 130°
2026-05-05 05:46 29.82790 -90.00861 10082 ft 315 kts 130°
2026-05-05 05:47 29.81361 -89.98857 10498 ft 334 kts 130°
2026-05-05 05:47 29.79836 -89.96720 10769 ft 356 kts 130°
2026-05-05 05:47 29.78226 -89.94462 11065 ft 373 kts 130°
2026-05-05 05:47 29.76559 -89.92125 11537 ft 382 kts 130°
2026-05-05 05:48 29.74861 -89.89743 12113 ft 387 kts 130°
2026-05-05 05:48 29.73142 -89.87334 12746 ft 391 kts 130°
2026-05-05 05:48 29.71409 -89.84904 13390 ft 395 kts 130°
2026-05-05 05:48 29.69655 -89.82448 13986 ft 400 kts 130°
2026-05-05 05:49 29.67898 -89.79990 14513 ft 405 kts 130°
2026-05-05 05:49 29.66097 -89.77472 15051 ft 410 kts 130°
2026-05-05 05:49 29.64274 -89.74927 15597 ft 415 kts 130°
2026-05-05 05:49 29.62429 -89.72351 16135 ft 420 kts 131°
2026-05-05 05:50 29.60560 -89.69744 16669 ft 425 kts 131°
2026-05-05 05:50 29.58670 -89.67110 17190 ft 429 kts 131°
2026-05-05 05:50 29.56760 -89.64449 17692 ft 434 kts 131°
2026-05-05 05:50 29.54828 -89.61758 18182 ft 439 kts 131°
2026-05-05 05:51 29.52874 -89.59040 18613 ft 443 kts 131°
2026-05-05 05:51 29.50902 -89.56299 19015 ft 448 kts 131°
2026-05-05 05:51 29.48909 -89.53528 19427 ft 452 kts 131°
2026-05-05 05:51 29.46924 -89.50772 19836 ft 456 kts 131°
2026-05-05 05:52 29.44896 -89.47958 20241 ft 460 kts 131°
2026-05-05 05:52 29.42846 -89.45115 20643 ft 464 kts 131°
2026-05-05 05:52 29.40779 -89.42251 21067 ft 468 kts 131°
2026-05-05 05:52 29.38695 -89.39365 21423 ft 471 kts 130°
2026-05-05 05:53 29.36593 -89.36455 21795 ft 476 kts 130°
2026-05-05 05:53 29.34472 -89.33522 22223 ft 480 kts 130°
2026-05-05 05:53 29.32334 -89.30569 22629 ft 484 kts 130°
2026-05-05 05:53 29.30207 -89.27632 23022 ft 487 kts 130°
2026-05-05 05:54 29.28034 -89.24633 23433 ft 491 kts 130°
2026-05-05 05:54 29.25843 -89.21612 23783 ft 495 kts 130°
2026-05-05 05:54 29.23637 -89.18573 24105 ft 498 kts 130°
2026-05-05 05:54 29.21413 -89.15511 24445 ft 501 kts 130°
2026-05-05 05:55 29.19177 -89.12435 24770 ft 505 kts 130°
2026-05-05 05:55 29.16923 -89.09336 25109 ft 508 kts 130°
2026-05-05 05:55 29.14659 -89.06226 25420 ft 511 kts 130°
2026-05-05 05:55 29.12374 -89.03089 25732 ft 514 kts 130°
2026-05-05 05:56 29.10111 -88.99986 26039 ft 517 kts 130°
2026-05-05 05:56 29.07803 -88.96822 26346 ft 520 kts 130°
2026-05-05 05:56 29.05478 -88.93639 26649 ft 523 kts 130°
2026-05-05 05:56 29.03143 -88.90444 26939 ft 526 kts 130°
2026-05-05 05:57 29.00793 -88.87231 27229 ft 528 kts 130°
2026-05-05 05:57 28.98429 -88.84001 27522 ft 531 kts 130°
2026-05-05 05:57 28.96053 -88.80757 27802 ft 534 kts 130°
2026-05-05 05:57 28.93664 -88.77499 28074 ft 536 kts 130°
2026-05-05 05:58 28.91299 -88.74274 28334 ft 539 kts 129°
2026-05-05 05:58 28.89130 -88.70780 28574 ft 541 kts 118°
2026-05-05 05:58 28.87521 -88.66905 28849 ft 540 kts 108°
2026-05-05 05:58 28.86215 -88.62888 29115 ft 541 kts 106°
2026-05-05 05:59 28.85023 -88.58804 29403 ft 542 kts 104°
2026-05-05 05:59 28.83898 -88.54707 29782 ft 542 kts 103°
2026-05-05 05:59 28.82794 -88.50601 30140 ft 541 kts 103°
2026-05-05 05:59 28.81691 -88.46499 30440 ft 542 kts 103°
2026-05-05 06:00 28.80592 -88.42450 30711 ft 542 kts 103°
2026-05-05 06:00 28.79465 -88.38343 31000 ft 543 kts 103°
2026-05-05 06:00 28.78328 -88.34236 31288 ft 543 kts 104°
2026-05-05 06:00 28.77185 -88.30131 31562 ft 544 kts 104°
2026-05-05 06:01 28.76037 -88.26024 31843 ft 544 kts 104°
2026-05-05 06:01 28.74885 -88.21914 32130 ft 545 kts 104°
2026-05-05 06:01 28.73729 -88.17798 32429 ft 545 kts 104°
2026-05-05 06:01 28.72575 -88.13688 32724 ft 545 kts 104°
2026-05-05 06:02 28.71418 -88.09575 32975 ft 546 kts 104°
2026-05-05 06:02 28.70277 -88.05521 33029 ft 543 kts 104°
2026-05-05 06:02 28.67975 -87.97367 33028 ft 540 kts 104°
2026-05-05 06:03 28.65677 -87.89235 33031 ft 540 kts 104°
2026-05-05 06:03 28.63374 -87.81105 33027 ft 540 kts 104°
2026-05-05 06:04 28.61080 -87.73028 33028 ft 540 kts 104°
2026-05-05 06:04 28.58768 -87.64911 33028 ft 540 kts 104°
2026-05-05 06:05 28.56450 -87.56794 33028 ft 540 kts 104°
2026-05-05 06:05 28.54126 -87.48678 33027 ft 540 kts 104°
2026-05-05 06:06 28.51797 -87.40561 33030 ft 540 kts 104°
2026-05-05 06:06 28.49464 -87.32453 33032 ft 540 kts 104°
2026-05-05 06:07 28.47140 -87.24398 33028 ft 540 kts 104°
2026-05-05 06:07 28.44798 -87.16298 33029 ft 540 kts 104°
2026-05-05 06:08 28.42449 -87.08195 33028 ft 540 kts 104°
2026-05-05 06:08 28.40099 -87.00105 33029 ft 540 kts 104°
2026-05-05 06:09 28.37757 -86.92068 33026 ft 540 kts 104°
2026-05-05 06:09 28.35396 -86.83982 33024 ft 540 kts 104°
2026-05-05 06:10 28.33029 -86.75898 33021 ft 540 kts 104°
2026-05-05 06:10 28.30693 -86.67926 33021 ft 540 kts 104°
2026-05-05 06:11 28.28333 -86.59838 33021 ft 540 kts 104°
2026-05-05 06:11 28.25977 -86.51766 33016 ft 539 kts 104°
2026-05-05 06:12 28.23612 -86.43691 33022 ft 539 kts 104°
2026-05-05 06:12 28.21321 -86.35890 33022 ft 539 kts 104°
2026-05-05 06:13 28.18947 -86.27826 33024 ft 539 kts 104°
2026-05-05 06:13 28.16733 -86.20324 33023 ft 539 kts 104°
2026-05-05 06:14 28.14393 -86.12413 33026 ft 539 kts 104°
2026-05-05 06:14 28.12008 -86.04370 33027 ft 539 kts 104°
2026-05-05 06:15 28.09634 -85.96381 33024 ft 539 kts 104°
2026-05-05 06:15 28.07239 -85.88344 33026 ft 539 kts 104°
2026-05-05 06:16 28.04838 -85.80305 33027 ft 539 kts 104°
2026-05-05 06:16 28.02435 -85.72277 33028 ft 539 kts 104°
2026-05-05 06:17 28.00042 -85.64303 33028 ft 539 kts 104°
2026-05-05 06:17 27.97631 -85.56287 33024 ft 538 kts 104°
2026-05-05 06:18 27.95214 -85.48271 33026 ft 538 kts 104°
2026-05-05 06:18 27.92793 -85.40263 33024 ft 538 kts 104°
2026-05-05 06:19 27.90386 -85.32315 33023 ft 538 kts 104°
2026-05-05 06:19 27.88239 -85.24253 33027 ft 532 kts 96°
2026-05-05 06:20 27.86794 -85.16067 33026 ft 531 kts 95°
2026-05-05 06:20 27.85408 -85.07876 33021 ft 531 kts 95°
2026-05-05 06:21 27.84026 -84.99689 33021 ft 530 kts 95°
2026-05-05 06:21 27.82641 -84.91503 33025 ft 530 kts 95°
2026-05-05 06:22 27.81427 -84.83378 33021 ft 523 kts 86°
2026-05-05 06:22 27.81587 -84.75282 33024 ft 514 kts 79°
2026-05-05 06:23 27.81998 -84.67225 33023 ft 514 kts 79°
2026-05-05 06:23 27.82393 -84.59161 33028 ft 514 kts 79°
2026-05-05 06:24 27.82773 -84.51160 33032 ft 514 kts 79°
2026-05-05 06:24 27.83148 -84.43107 33033 ft 513 kts 79°
2026-05-05 06:25 27.83517 -84.35050 33033 ft 513 kts 79°
2026-05-05 06:25 27.83882 -84.26997 33033 ft 513 kts 79°
2026-05-05 06:26 27.84242 -84.18941 33031 ft 513 kts 79°
2026-05-05 06:26 27.84594 -84.10946 33031 ft 513 kts 79°
2026-05-05 06:27 27.85118 -83.98869 33034 ft 513 kts 80°
2026-05-05 06:28 27.85465 -83.90783 33031 ft 518 kts 80°
2026-05-05 06:28 27.85808 -83.82627 33033 ft 521 kts 80°
2026-05-05 06:29 27.86143 -83.74508 33032 ft 521 kts 80°
2026-05-05 06:29 27.86477 -83.66328 33035 ft 521 kts 80°
2026-05-05 06:30 27.86803 -83.58172 33030 ft 517 kts 80°
2026-05-05 06:30 27.87124 -83.50072 33033 ft 515 kts 80°
2026-05-05 06:31 27.87440 -83.42030 33037 ft 516 kts 80°
2026-05-05 06:31 27.87752 -83.33937 33033 ft 516 kts 80°
2026-05-05 06:32 27.88038 -83.25831 33031 ft 517 kts 82°
2026-05-05 06:32 27.88073 -83.17690 33034 ft 519 kts 83°
2026-05-05 06:33 27.88074 -83.09590 33038 ft 519 kts 83°
2026-05-05 06:33 27.88079 -83.01435 33036 ft 519 kts 83°
2026-05-05 06:34 27.88081 -82.93282 33044 ft 519 kts 83°
2026-05-05 06:34 27.88080 -82.85123 33046 ft 519 kts 83°
2026-05-05 06:35 27.88075 -82.76962 33056 ft 519 kts 83°
2026-05-05 06:35 27.88064 -82.68852 33055 ft 519 kts 83°
2026-05-05 06:35 27.88037 -82.64744 32709 ft 525 kts 84°
2026-05-05 06:36 27.87981 -82.60610 31900 ft 528 kts 85°
2026-05-05 06:36 27.87917 -82.56452 31082 ft 531 kts 85°
2026-05-05 06:36 27.87851 -82.52284 30454 ft 529 kts 85°
2026-05-05 06:36 27.87784 -82.48145 29821 ft 525 kts 85°
2026-05-05 06:37 27.87719 -82.44028 29070 ft 523 kts 85°
2026-05-05 06:37 27.88055 -82.40005 28363 ft 506 kts 70°
2026-05-05 06:37 27.89202 -82.36384 27809 ft 488 kts 57°
2026-05-05 06:37 27.90657 -82.32983 27550 ft 474 kts 56°
2026-05-05 06:38 27.92087 -82.29672 27277 ft 464 kts 56°
2026-05-05 06:38 27.93474 -82.26394 26690 ft 461 kts 57°
2026-05-05 06:38 27.94830 -82.23124 25821 ft 458 kts 58°
2026-05-05 06:38 27.96167 -82.19852 24909 ft 457 kts 59°
2026-05-05 06:39 27.97488 -82.16587 24054 ft 455 kts 60°
2026-05-05 06:39 27.98797 -82.13332 23158 ft 453 kts 61°
2026-05-05 06:39 28.00085 -82.10114 22359 ft 446 kts 61°
2026-05-05 06:39 28.01330 -82.06995 21639 ft 437 kts 62°
2026-05-05 06:40 28.02572 -82.03882 20898 ft 430 kts 62°
2026-05-05 06:40 28.03789 -82.00827 20217 ft 421 kts 63°
2026-05-05 06:40 28.04978 -81.97841 19617 ft 411 kts 63°
2026-05-05 06:40 28.06145 -81.94945 19210 ft 396 kts 63°
2026-05-05 06:41 28.07271 -81.92170 18962 ft 378 kts 63°
2026-05-05 06:41 28.08352 -81.89511 18592 ft 367 kts 63°
2026-05-05 06:41 28.09470 -81.86939 17961 ft 362 kts 60°
2026-05-05 06:41 28.10618 -81.84456 17307 ft 358 kts 60°
2026-05-05 06:42 28.11773 -81.81979 16679 ft 354 kts 61°
2026-05-05 06:42 28.12594 -81.79371 16040 ft 352 kts 82°
2026-05-05 06:42 28.12555 -81.76621 15468 ft 349 kts 97°
2026-05-05 06:42 28.12227 -81.73915 15075 ft 344 kts 99°
2026-05-05 06:43 28.11872 -81.71262 14554 ft 338 kts 99°
2026-05-05 06:43 28.11527 -81.68638 13976 ft 335 kts 99°
2026-05-05 06:43 28.11194 -81.66045 13358 ft 331 kts 99°
2026-05-05 06:43 28.10871 -81.63483 12730 ft 327 kts 98°
2026-05-05 06:44 28.10558 -81.60983 12126 ft 323 kts 98°
2026-05-05 06:44 28.10247 -81.58479 11532 ft 319 kts 98°
2026-05-05 06:44 28.09940 -81.56006 10933 ft 316 kts 98°
2026-05-05 06:44 28.09636 -81.53557 10329 ft 313 kts 98°
2026-05-05 06:45 28.09335 -81.51132 9753 ft 309 kts 98°
2026-05-05 06:45 28.09045 -81.48787 9475 ft 293 kts 98°
2026-05-05 06:45 28.08769 -81.46567 9272 ft 277 kts 98°
2026-05-05 06:45 28.08507 -81.44452 9129 ft 266 kts 98°
2026-05-05 06:46 28.08340 -81.43096 8984 ft 261 kts 97°
2026-05-05 06:46 28.08632 -81.40402 8334 ft 267 kts 60°
2026-05-05 06:46 28.09910 -81.38930 7792 ft 265 kts 25°
2026-05-05 06:46 28.11622 -81.38191 7278 ft 263 kts 21°
2026-05-05 06:47 28.13149 -81.37061 6756 ft 264 kts 40°
2026-05-05 06:47 28.14528 -81.35716 6370 ft 258 kts 41°
2026-05-05 06:47 28.15827 -81.34365 6038 ft 248 kts 42°
2026-05-05 06:47 28.17063 -81.33054 5653 ft 238 kts 43°
2026-05-05 06:48 28.18237 -81.31802 5358 ft 226 kts 43°
2026-05-05 06:48 28.18989 -81.30999 5108 ft 222 kts 43°
2026-05-05 06:48 28.20662 -81.29761 4575 ft 216 kts 20°
2026-05-05 06:48 28.22122 -81.29409 4267 ft 214 kts
2026-05-05 06:49 28.23611 -81.29393 4049 ft 215 kts 359°
2026-05-05 06:49 28.24605 -81.29412 4007 ft 217 kts 359°
2026-05-05 06:49 28.26096 -81.29432 3998 ft 207 kts
2026-05-05 06:49 28.27471 -81.29440 3919 ft 191 kts
2026-05-05 06:50 28.28817 -81.29440 3420 ft 195 kts
2026-05-05 06:50 28.30184 -81.29437 2918 ft 198 kts
2026-05-05 06:50 28.32018 -81.29448 2244 ft 200 kts
2026-05-05 06:50 28.33413 -81.29484 1713 ft 203 kts
2026-05-05 06:51 28.34822 -81.29516 1282 ft 198 kts
2026-05-05 06:51 28.35710 -81.29512 1118 ft 188 kts
2026-05-05 06:51 28.36950 -81.29530 908 ft 168 kts
2026-05-05 06:51 28.38062 -81.29537 671 ft 152 kts
2026-05-05 06:52 28.39075 -81.29544 467 ft 140 kts
2026-05-05 06:52 28.40010 -81.29553 305 ft 131 kts
2026-05-05 06:52 28.40907 -81.29563 139 ft 123 kts
2026-05-05 06:52 28.41690 -81.29563 108 ft 97 kts 359°
2026-05-05 06:53 28.42184 -81.29572 103 ft 45 kts 360°
2026-05-05 06:53 28.42465 -81.29573 103 ft 39 kts 359°
2026-05-05 06:53 28.42717 -81.29581 105 ft 26 kts 354°
2026-05-05 06:53 28.42867 -81.29626 108 ft 18 kts 329°
2026-05-05 06:54 28.42911 -81.29733 108 ft 15 kts 277°
2026-05-05 06:54 28.42914 -81.29855 105 ft 15 kts 256°
2026-05-05 06:54 28.42876 -81.29885 106 ft 7 kts 178°
2026-05-05 06:54 28.42800 -81.29883 106 ft 14 kts 179°
2026-05-05 06:55 28.42751 -81.29940 106 ft 11 kts 300°
2026-05-05 06:55 28.42796 -81.30005 105 ft 7 kts 307°
2026-05-05 06:55 28.42798 -81.30008 105 ft 0 kts 307°